PRIVATE WETTERSTATION BILLIGHEIM-ALLFELD                       ZURCK
Wetterdaten: Dienstag, 04.04.2017
Datum Zeit Temp. A. Temp. A. min Temp. A. max Feuchte A. Luftdruck Regen Wind Richtung Richtung Sonnenschein ET Solar Taupunkt Windchill Windben Empfang
04.04.2017 00:00 9,8 C 9,8 C 10,1 C 80 % 1022,1 hPa 0,0 l/m 0,0 km/h (0 Bft) N 0 0 min 0,025 mm 0 W/m 6,5 C 9,8 C 0,0 km/h (0 Bft) 99 %
04.04.2017 00:10 9,8 C 9,8 C 9,8 C 81 % 1022,1 hPa 0,0 l/m 0,0 km/h (0 Bft) N 0 0 min 0,000 mm 0 W/m 6,7 C 9,8 C 0,0 km/h (0 Bft) 100 %
04.04.2017 00:20 9,7 C 9,7 C 9,8 C 81 % 1022,2 hPa 0,0 l/m 0,0 km/h (0 Bft) N 0 0 min 0,000 mm 0 W/m 6,6 C 9,7 C 0,0 km/h (0 Bft) 98 %
04.04.2017 00:30 9,6 C 9,6 C 9,7 C 83 % 1022,4 hPa 0,0 l/m 0,0 km/h (0 Bft) N 0 0 min 0,000 mm 0 W/m 6,9 C 9,6 C 0,0 km/h (0 Bft) 98 %
04.04.2017 00:40 9,5 C 9,5 C 9,6 C 84 % 1022,3 hPa 0,0 l/m 0,0 km/h (0 Bft) N 0 0 min 0,000 mm 0 W/m 6,9 C 9,5 C 0,0 km/h (0 Bft) 98 %
04.04.2017 00:50 9,6 C 9,5 C 9,6 C 84 % 1022,3 hPa 0,0 l/m 0,0 km/h (0 Bft) N 0 0 min 0,000 mm 0 W/m 7,0 C 9,6 C 0,0 km/h (0 Bft) 98 %
04.04.2017 01:00 9,8 C 9,6 C 9,8 C 83 % 1022,3 hPa 0,0 l/m 0,0 km/h (0 Bft) NO 45 0 min 0,000 mm 0 W/m 7,1 C 9,8 C 1,6 km/h (1 Bft) 98 %
04.04.2017 01:10 9,9 C 9,8 C 9,9 C 83 % 1022,3 hPa 0,0 l/m 1,6 km/h (1 Bft) NO 45 0 min 0,000 mm 0 W/m 7,2 C 9,9 C 4,8 km/h (1 Bft) 98 %
04.04.2017 01:20 9,7 C 9,7 C 9,9 C 82 % 1022,2 hPa 0,0 l/m 0,0 km/h (0 Bft) N 0 0 min 0,000 mm 0 W/m 6,8 C 9,7 C 0,0 km/h (0 Bft) 97 %
04.04.2017 01:30 9,5 C 9,5 C 9,7 C 82 % 1022,3 hPa 0,0 l/m 0,0 km/h (0 Bft) NO 45 0 min 0,000 mm 0 W/m 6,6 C 9,5 C 1,6 km/h (1 Bft) 98 %
04.04.2017 01:40 9,2 C 9,2 C 9,5 C 83 % 1022,2 hPa 0,0 l/m 0,0 km/h (0 Bft) NO 45 0 min 0,000 mm 0 W/m 6,5 C 9,2 C 1,6 km/h (1 Bft) 98 %
04.04.2017 01:50 9,1 C 9,1 C 9,2 C 84 % 1022,1 hPa 0,0 l/m 0,0 km/h (0 Bft) NO 45 0 min 0,000 mm 0 W/m 6,5 C 9,1 C 1,6 km/h (1 Bft) 97 %
04.04.2017 02:00 8,9 C 8,9 C 9,1 C 84 % 1022,0 hPa 0,0 l/m 0,0 km/h (0 Bft) NO 45 0 min 0,000 mm 0 W/m 6,3 C 8,9 C 1,6 km/h (1 Bft) 98 %
04.04.2017 02:10 8,9 C 8,9 C 9,0 C 84 % 1021,9 hPa 0,0 l/m 0,0 km/h (0 Bft) N 0 0 min 0,000 mm 0 W/m 6,3 C 8,9 C 0,0 km/h (0 Bft) 98 %
04.04.2017 02:20 8,6 C 8,6 C 8,9 C 84 % 1021,9 hPa 0,0 l/m 0,0 km/h (0 Bft) N 0 0 min 0,000 mm 0 W/m 6,1 C 8,6 C 0,0 km/h (0 Bft) 98 %
04.04.2017 02:30 8,4 C 8,3 C 8,6 C 85 % 1021,8 hPa 0,0 l/m 0,0 km/h (0 Bft) N 0 0 min 0,000 mm 0 W/m 6,0 C 8,4 C 0,0 km/h (0 Bft) 98 %
04.04.2017 02:40 8,1 C 8,1 C 8,3 C 86 % 1021,7 hPa 0,0 l/m 0,0 km/h (0 Bft) N 0 0 min 0,000 mm 0 W/m 5,9 C 8,1 C 0,0 km/h (0 Bft) 98 %
04.04.2017 02:50 7,9 C 7,9 C 8,1 C 87 % 1021,7 hPa 0,0 l/m 0,0 km/h (0 Bft) NO 45 0 min 0,000 mm 0 W/m 5,9 C 7,9 C 1,6 km/h (1 Bft) 98 %
04.04.2017 03:00 7,8 C 7,8 C 7,9 C 88 % 1021,7 hPa 0,0 l/m 0,0 km/h (0 Bft) N 0 0 min 0,000 mm 0 W/m 5,9 C 7,8 C 0,0 km/h (0 Bft) 97 %
04.04.2017 03:10 7,6 C 7,6 C 7,8 C 88 % 1021,5 hPa 0,0 l/m 0,0 km/h (0 Bft) NO 45 0 min 0,000 mm 0 W/m 5,7 C 7,6 C 1,6 km/h (1 Bft) 98 %
04.04.2017 03:20 7,3 C 7,3 C 7,6 C 88 % 1021,5 hPa 0,0 l/m 0,0 km/h (0 Bft) N 0 0 min 0,000 mm 0 W/m 5,4 C 7,3 C 0,0 km/h (0 Bft) 98 %
04.04.2017 03:30 7,3 C 7,3 C 7,3 C 89 % 1021,5 hPa 0,0 l/m 0,0 km/h (0 Bft) N 0 0 min 0,000 mm 0 W/m 5,6 C 7,3 C 0,0 km/h (0 Bft) 98 %
04.04.2017 03:40 7,2 C 7,2 C 7,2 C 89 % 1021,5 hPa 0,0 l/m 0,0 km/h (0 Bft) N 0 0 min 0,000 mm 0 W/m 5,5 C 7,2 C 0,0 km/h (0 Bft) 98 %
04.04.2017 03:50 7,1 C 7,1 C 7,2 C 89 % 1021,5 hPa 0,0 l/m 0,0 km/h (0 Bft) N 0 0 min 0,000 mm 0 W/m 5,4 C 7,1 C 0,0 km/h (0 Bft) 98 %
04.04.2017 04:00 6,9 C 6,9 C 7,1 C 89 % 1021,4 hPa 0,0 l/m 0,0 km/h (0 Bft) NO 45 0 min 0,000 mm 0 W/m 5,2 C 6,9 C 4,8 km/h (1 Bft) 97 %
04.04.2017 04:10 6,8 C 6,8 C 6,9 C 89 % 1021,4 hPa 0,0 l/m 0,0 km/h (0 Bft) N 0 0 min 0,000 mm 0 W/m 5,1 C 6,8 C 0,0 km/h (0 Bft) 97 %
04.04.2017 04:20 6,7 C 6,7 C 6,8 C 90 % 1021,4 hPa 0,0 l/m 0,0 km/h (0 Bft) NO 45 0 min 0,000 mm 0 W/m 5,2 C 6,7 C 4,8 km/h (1 Bft) 89 %
04.04.2017 04:30 6,6 C 6,6 C 6,7 C 90 % 1021,5 hPa 0,0 l/m 0,0 km/h (0 Bft) NO 45 0 min 0,000 mm 0 W/m 5,1 C 6,6 C 1,6 km/h (1 Bft) 97 %
04.04.2017 04:40 6,5 C 6,5 C 6,6 C 90 % 1021,5 hPa 0,0 l/m 0,0 km/h (0 Bft) N 0 0 min 0,000 mm 0 W/m 5,0 C 6,5 C 0,0 km/h (0 Bft) 98 %
04.04.2017 04:50 6,3 C 6,3 C 6,5 C 90 % 1021,4 hPa 0,0 l/m 0,0 km/h (0 Bft) N 0 0 min 0,000 mm 0 W/m 4,8 C 6,3 C 0,0 km/h (0 Bft) 98 %
04.04.2017 05:00 6,1 C 6,1 C 6,3 C 90 % 1021,5 hPa 0,0 l/m 0,0 km/h (0 Bft) N 0 0 min 0,000 mm 0 W/m 4,6 C 6,1 C 0,0 km/h (0 Bft) 97 %
04.04.2017 05:10 5,9 C 5,9 C 6,1 C 90 % 1021,6 hPa 0,0 l/m 0,0 km/h (0 Bft) N 0 0 min 0,000 mm 0 W/m 4,4 C 5,9 C 0,0 km/h (0 Bft) 98 %
04.04.2017 05:20 5,7 C 5,7 C 5,9 C 90 % 1021,5 hPa 0,0 l/m 0,0 km/h (0 Bft) N 0 0 min 0,000 mm 0 W/m 4,2 C 5,7 C 0,0 km/h (0 Bft) 97 %
04.04.2017 05:30 5,4 C 5,4 C 5,7 C 90 % 1021,5 hPa 0,0 l/m 0,0 km/h (0 Bft) N 0 0 min 0,000 mm 0 W/m 3,9 C 5,4 C 0,0 km/h (0 Bft) 98 %
04.04.2017 05:40 5,2 C 5,2 C 5,4 C 90 % 1021,5 hPa 0,0 l/m 0,0 km/h (0 Bft) N 0 0 min 0,000 mm 0 W/m 3,7 C 5,2 C 0,0 km/h (0 Bft) 97 %
04.04.2017 05:50 5,1 C 5,1 C 5,2 C 90 % 1021,5 hPa 0,0 l/m 0,0 km/h (0 Bft) N 0 0 min 0,000 mm 0 W/m 3,6 C 5,1 C 0,0 km/h (0 Bft) 98 %
04.04.2017 06:00 5,1 C 5,1 C 5,1 C 90 % 1021,5 hPa 0,0 l/m 0,0 km/h (0 Bft) N 0 0 min 0,000 mm 0 W/m 3,6 C 5,1 C 0,0 km/h (0 Bft) 98 %
04.04.2017 06:10 5,0 C 5,0 C 5,1 C 90 % 1021,5 hPa 0,0 l/m 0,0 km/h (0 Bft) N 0 0 min 0,000 mm 0 W/m 3,5 C 5,0 C 0,0 km/h (0 Bft) 97 %
04.04.2017 06:20 5,0 C 5,0 C 5,0 C 91 % 1021,5 hPa 0,0 l/m 0,0 km/h (0 Bft) N 0 0 min 0,000 mm 0 W/m 3,7 C 5,0 C 0,0 km/h (0 Bft) 98 %
04.04.2017 06:30 4,9 C 4,9 C 5,0 C 91 % 1021,6 hPa 0,0 l/m 0,0 km/h (0 Bft) N 0 0 min 0,000 mm 0 W/m 3,6 C 4,9 C 0,0 km/h (0 Bft) 97 %
04.04.2017 06:40 4,8 C 4,8 C 5,0 C 90 % 1021,5 hPa 0,0 l/m 0,0 km/h (0 Bft) N 0 0 min 0,000 mm 0 W/m 3,3 C 4,8 C 0,0 km/h (0 Bft) 98 %
04.04.2017 06:50 4,7 C 4,7 C 4,8 C 91 % 1021,5 hPa 0,0 l/m 0,0 km/h (0 Bft) N 0 0 min 0,000 mm 0 W/m 3,4 C 4,7 C 0,0 km/h (0 Bft) 97 %
04.04.2017 07:00 4,7 C 4,7 C 4,7 C 91 % 1021,6 hPa 0,0 l/m 0,0 km/h (0 Bft) N 0 0 min 0,000 mm 5 W/m 3,4 C 4,7 C 0,0 km/h (0 Bft) 98 %
04.04.2017 07:10 4,7 C 4,7 C 4,8 C 91 % 1021,7 hPa 0,0 l/m 0,0 km/h (0 Bft) N 0 0 min 0,000 mm 14 W/m 3,4 C 4,7 C 0,0 km/h (0 Bft) 98 %
04.04.2017 07:20 4,7 C 4,7 C 4,8 C 91 % 1021,7 hPa 0,0 l/m 0,0 km/h (0 Bft) N 0 0 min 0,000 mm 23 W/m 3,4 C 4,7 C 0,0 km/h (0 Bft) 97 %
04.04.2017 07:30 4,7 C 4,7 C 4,7 C 91 % 1021,7 hPa 0,0 l/m 0,0 km/h (0 Bft) N 0 0 min 0,000 mm 33 W/m 3,4 C 4,7 C 0,0 km/h (0 Bft) 98 %
04.04.2017 07:40 4,7 C 4,7 C 4,7 C 91 % 1021,7 hPa 0,0 l/m 0,0 km/h (0 Bft) O-NO 67 0 min 0,000 mm 46 W/m 3,4 C 4,7 C 1,6 km/h (1 Bft) 97 %
04.04.2017 07:50 4,9 C 4,7 C 4,9 C 91 % 1021,8 hPa 0,0 l/m 0,0 km/h (0 Bft) N 0 0 min 0,000 mm 65 W/m 3,6 C 4,9 C 0,0 km/h (0 Bft) 98 %
04.04.2017 08:00 5,1 C 4,9 C 5,1 C 91 % 1021,8 hPa 0,0 l/m 0,0 km/h (0 Bft) N 0 0 min 0,025 mm 77 W/m 3,8 C 5,1 C 0,0 km/h (0 Bft) 97 %
04.04.2017 08:10 5,3 C 5,1 C 5,3 C 91 % 1021,9 hPa 0,0 l/m 0,0 km/h (0 Bft) N 0 0 min 0,000 mm 91 W/m 4,0 C 5,3 C 0,0 km/h (0 Bft) 98 %
04.04.2017 08:20 5,6 C 5,3 C 5,6 C 91 % 1021,9 hPa 0,0 l/m 0,0 km/h (0 Bft) N 0 0 min 0,000 mm 100 W/m 4,2 C 5,6 C 0,0 km/h (0 Bft) 97 %
04.04.2017 08:30 6,0 C 5,6 C 6,0 C 91 % 1021,9 hPa 0,0 l/m 0,0 km/h (0 Bft) N 0 0 min 0,000 mm 144 W/m 4,6 C 6,0 C 0,0 km/h (0 Bft) 97 %
04.04.2017 08:40 6,5 C 6,0 C 6,5 C 91 % 1021,9 hPa 0,0 l/m 0,0 km/h (0 Bft) N 0 10 min 0,000 mm 192 W/m 5,1 C 6,5 C 0,0 km/h (0 Bft) 98 %
04.04.2017 08:50 7,1 C 6,5 C 7,1 C 91 % 1022,0 hPa 0,0 l/m 0,0 km/h (0 Bft) N 0 10 min 0,000 mm 214 W/m 5,7 C 7,1 C 0,0 km/h (0 Bft) 97 %
04.04.2017 09:00 7,6 C 7,1 C 7,6 C 90 % 1021,9 hPa 0,0 l/m 0,0 km/h (0 Bft) NO 45 10 min 0,051 mm 243 W/m 6,1 C 7,6 C 1,6 km/h (1 Bft) 98 %
04.04.2017 09:10 8,0 C 7,6 C 8,0 C 89 % 1021,9 hPa 0,0 l/m 0,0 km/h (0 Bft) NO 45 10 min 0,000 mm 285 W/m 6,3 C 8,0 C 3,2 km/h (1 Bft) 97 %
04.04.2017 09:20 8,4 C 8,1 C 8,4 C 88 % 1021,8 hPa 0,0 l/m 0,0 km/h (0 Bft) NO 45 10 min 0,000 mm 316 W/m 6,5 C 8,4 C 3,2 km/h (1 Bft) 98 %
04.04.2017 09:30 8,8 C 8,4 C 8,8 C 85 % 1021,9 hPa 0,0 l/m 1,6 km/h (1 Bft) NO 45 10 min 0,000 mm 345 W/m 6,4 C 8,8 C 8,0 km/h (2 Bft) 98 %
04.04.2017 09:40 9,2 C 8,8 C 9,2 C 84 % 1021,9 hPa 0,0 l/m 1,6 km/h (1 Bft) NO 45 10 min 0,000 mm 376 W/m 6,6 C 9,2 C 8,0 km/h (2 Bft) 97 %
04.04.2017 09:50 9,7 C 9,2 C 9,7 C 82 % 1021,9 hPa 0,0 l/m 0,0 km/h (0 Bft) NO 45 10 min 0,000 mm 392 W/m 6,8 C 9,7 C 6,4 km/h (2 Bft) 98 %
04.04.2017 10:00 10,2 C 9,7 C 10,2 C 82 % 1021,9 hPa 0,0 l/m 0,0 km/h (0 Bft) O-NO 67 10 min 0,152 mm 427 W/m 7,3 C 10,2 C 6,4 km/h (2 Bft) 97 %
04.04.2017 10:10 10,5 C 10,2 C 10,5 C 80 % 1022,0 hPa 0,0 l/m 0,0 km/h (0 Bft) O-NO 67 10 min 0,000 mm 439 W/m 7,2 C 10,5 C 1,6 km/h (1 Bft) 97 %
04.04.2017 10:20 10,9 C 10,5 C 10,9 C 79 % 1022,0 hPa 0,0 l/m 0,0 km/h (0 Bft) NO 45 10 min 0,000 mm 480 W/m 7,4 C 10,9 C 8,0 km/h (2 Bft) 96 %
04.04.2017 10:30 11,2 C 10,9 C 11,2 C 78 % 1022,0 hPa 0,0 l/m 0,0 km/h (0 Bft) NO 45 10 min 0,000 mm 492 W/m 7,5 C 11,2 C 4,8 km/h (1 Bft) 98 %
04.04.2017 10:40 11,6 C 11,2 C 11,6 C 77 % 1022,0 hPa 0,0 l/m 0,0 km/h (0 Bft) O-NO 67 10 min 0,000 mm 529 W/m 7,7 C 11,6 C 6,4 km/h (2 Bft) 98 %
04.04.2017 10:50 12,0 C 11,6 C 12,0 C 76 % 1022,0 hPa 0,0 l/m 0,0 km/h (0 Bft) N 360 10 min 0,000 mm 557 W/m 7,9 C 12,0 C 6,4 km/h (2 Bft) 97 %
04.04.2017 11:00 12,4 C 12,0 C 12,4 C 74 % 1022,0 hPa 0,0 l/m 1,6 km/h (1 Bft) N-NO 22 10 min 0,229 mm 577 W/m 7,9 C 12,4 C 6,4 km/h (2 Bft) 98 %
04.04.2017 11:10 12,9 C 12,4 C 12,9 C 72 % 1022,0 hPa 0,0 l/m 0,0 km/h (0 Bft) O-NO 67 10 min 0,000 mm 594 W/m 8,0 C 12,9 C 6,4 km/h (2 Bft) 97 %
04.04.2017 11:20 13,1 C 12,9 C 13,1 C 73 % 1022,0 hPa 0,0 l/m 1,6 km/h (1 Bft) NO 45 10 min 0,000 mm 589 W/m 8,4 C 13,1 C 6,4 km/h (2 Bft) 98 %
04.04.2017 11:30 13,1 C 13,1 C 13,1 C 73 % 1022,1 hPa 0,0 l/m 0,0 km/h (0 Bft) N-NO 22 10 min 0,000 mm 624 W/m 8,4 C 13,1 C 4,8 km/h (1 Bft) 97 %
04.04.2017 11:40 13,3 C 13,1 C 13,3 C 71 % 1021,9 hPa 0,0 l/m 0,0 km/h (0 Bft) N-NO 22 10 min 0,000 mm 647 W/m 8,2 C 13,3 C 4,8 km/h (1 Bft) 98 %
04.04.2017 11:50 13,5 C 13,3 C 13,5 C 70 % 1022,1 hPa 0,0 l/m 0,0 km/h (0 Bft) NO 45 10 min 0,000 mm 664 W/m 8,1 C 13,5 C 6,4 km/h (2 Bft) 98 %
04.04.2017 12:00 13,5 C 13,5 C 13,6 C 71 % 1021,9 hPa 0,0 l/m 1,6 km/h (1 Bft) NO 45 10 min 0,279 mm 624 W/m 8,3 C 13,5 C 8,0 km/h (2 Bft) 96 %
04.04.2017 12:10 13,8 C 13,6 C 13,8 C 70 % 1022,0 hPa 0,0 l/m 1,6 km/h (1 Bft) NO 45 10 min 0,000 mm 703 W/m 8,4 C 13,8 C 8,0 km/h (2 Bft) 98 %
04.04.2017 12:20 13,7 C 13,7 C 13,8 C 70 % 1022,0 hPa 0,0 l/m 0,0 km/h (0 Bft) N-NO 22 10 min 0,000 mm 807 W/m 8,3 C 13,7 C 1,6 km/h (1 Bft) 97 %
04.04.2017 12:30 13,9 C 13,7 C 13,9 C 69 % 1021,9 hPa 0,0 l/m 1,6 km/h (1 Bft) N 360 10 min 0,000 mm 770 W/m 8,3 C 13,9 C 6,4 km/h (2 Bft) 98 %
04.04.2017 12:40 13,4 C 13,4 C 13,9 C 69 % 1021,8 hPa 0,0 l/m 0,0 km/h (0 Bft) NO 45 10 min 0,000 mm 255 W/m 7,8 C 13,4 C 6,4 km/h (2 Bft) 97 %
04.04.2017 12:50 13,3 C 13,3 C 13,5 C 71 % 1021,8 hPa 0,0 l/m 1,6 km/h (1 Bft) N-NO 22 10 min 0,000 mm 225 W/m 8,2 C 13,3 C 11,3 km/h (2 Bft) 98 %
04.04.2017 13:00 13,2 C 13,2 C 13,3 C 71 % 1021,7 hPa 0,0 l/m 1,6 km/h (1 Bft) N 360 10 min 0,178 mm 176 W/m 8,1 C 13,2 C 11,3 km/h (2 Bft) 98 %
04.04.2017 13:10 13,0 C 13,0 C 13,2 C 72 % 1021,8 hPa 0,0 l/m 0,0 km/h (0 Bft) N 360 10 min 0,000 mm 253 W/m 8,1 C 13,0 C 4,8 km/h (1 Bft) 97 %
04.04.2017 13:20 13,8 C 13,0 C 13,8 C 69 % 1021,5 hPa 0,0 l/m 1,6 km/h (1 Bft) N-NW 337 10 min 0,000 mm 846 W/m 8,2 C 13,8 C 8,0 km/h (2 Bft) 98 %
04.04.2017 13:30 14,5 C 13,8 C 14,5 C 68 % 1021,4 hPa 0,0 l/m 3,2 km/h (1 Bft) NO 45 10 min 0,000 mm 844 W/m 8,7 C 14,5 C 9,7 km/h (2 Bft) 97 %
04.04.2017 13:40 15,1 C 14,6 C 15,1 C 61 % 1021,3 hPa 0,0 l/m 1,6 km/h (1 Bft) NO 45 10 min 0,000 mm 810 W/m 7,6 C 15,1 C 9,7 km/h (2 Bft) 98 %
04.04.2017 13:50 15,5 C 15,1 C 15,5 C 59 % 1021,1 hPa 0,0 l/m 0,0 km/h (0 Bft) NW 315 10 min 0,000 mm 814 W/m 7,5 C 15,5 C 6,4 km/h (2 Bft) 97 %
04.04.2017 14:00 15,7 C 15,4 C 15,7 C 60 % 1021,0 hPa 0,0 l/m 1,6 km/h (1 Bft) S-SW 202 10 min 0,356 mm 916 W/m 8,0 C 15,7 C 6,4 km/h (2 Bft) 98 %
04.04.2017 14:10 16,1 C 15,7 C 16,1 C 57 % 1021,0 hPa 0,0 l/m 3,2 km/h (1 Bft) NW 315 10 min 0,000 mm 900 W/m 7,6 C 16,1 C 11,3 km/h (2 Bft) 98 %
04.04.2017 14:20 15,8 C 15,8 C 16,1 C 55 % 1021,0 hPa 0,0 l/m 3,2 km/h (1 Bft) W-NW 292 10 min 0,000 mm 304 W/m 6,8 C 15,8 C 14,5 km/h (3 Bft) 96 %
04.04.2017 14:30 15,7 C 15,7 C 15,8 C 56 % 1020,9 hPa 0,0 l/m 4,8 km/h (1 Bft) NW 315 10 min 0,000 mm 308 W/m 6,9 C 15,7 C 14,5 km/h (3 Bft) 98 %
04.04.2017 14:40 15,5 C 15,5 C 15,7 C 59 % 1020,9 hPa 0,0 l/m 9,7 km/h (2 Bft) NW 315 10 min 0,000 mm 768 W/m 7,5 C 13,8 C 19,3 km/h (3 Bft) 97 %
04.04.2017 14:50 15,1 C 15,1 C 15,5 C 60 % 1021,0 hPa 0,0 l/m 8,0 km/h (2 Bft) NW 315 10 min 0,000 mm 814 W/m 7,4 C 14,2 C 20,9 km/h (4 Bft) 98 %
04.04.2017 15:00 15,4 C 15,1 C 15,4 C 60 % 1020,9 hPa 0,0 l/m 8,0 km/h (2 Bft) NW 315 10 min 0,229 mm 831 W/m 7,7 C 14,5 C 17,7 km/h (3 Bft) 97 %
04.04.2017 15:10 15,2 C 15,2 C 15,4 C 60 % 1020,8 hPa 0,0 l/m 6,4 km/h (2 Bft) W-NW 292 10 min 0,000 mm 694 W/m 7,5 C 15,2 C 12,9 km/h (3 Bft) 98 %
04.04.2017 15:20 15,6 C 15,2 C 15,6 C 57 % 1020,7 hPa 0,0 l/m 3,2 km/h (1 Bft) NW 315 10 min 0,000 mm 703 W/m 7,1 C 15,6 C 11,3 km/h (2 Bft) 98 %
04.04.2017 15:30 15,6 C 15,6 C 15,6 C 58 % 1020,6 hPa 0,0 l/m 1,6 km/h (1 Bft) NW 315 10 min 0,000 mm 237 W/m 7,4 C 15,6 C 8,0 km/h (2 Bft) 97 %
04.04.2017 15:40 15,3 C 15,3 C 15,6 C 57 % 1020,6 hPa 0,0 l/m 4,8 km/h (1 Bft) W-SW 247 10 min 0,000 mm 193 W/m 6,8 C 15,3 C 11,3 km/h (2 Bft) 98 %
04.04.2017 15:50 15,0 C 15,0 C 15,3 C 58 % 1020,5 hPa 0,0 l/m 4,8 km/h (1 Bft) W-NW 292 10 min 0,000 mm 185 W/m 6,8 C 15,0 C 14,5 km/h (3 Bft) 97 %
04.04.2017 16:00 15,0 C 14,9 C 15,1 C 60 % 1020,4 hPa 0,0 l/m 4,8 km/h (1 Bft) W 270 10 min 0,152 mm 185 W/m 7,3 C 15,0 C 12,9 km/h (3 Bft) 98 %
04.04.2017 16:10 15,3 C 15,0 C 15,3 C 58 % 1020,4 hPa 0,0 l/m 3,2 km/h (1 Bft) W 270 10 min 0,000 mm 207 W/m 7,1 C 15,3 C 11,3 km/h (2 Bft) 97 %
04.04.2017 16:20 15,7 C 15,3 C 15,7 C 58 % 1020,3 hPa 0,0 l/m 3,2 km/h (1 Bft) W-SW 247 10 min 0,000 mm 290 W/m 7,5 C 15,7 C 11,3 km/h (2 Bft) 98 %
04.04.2017 16:30 16,0 C 15,7 C 16,0 C 56 % 1020,3 hPa 0,0 l/m 3,2 km/h (1 Bft) W-SW 247 10 min 0,000 mm 295 W/m 7,2 C 16,0 C 11,3 km/h (2 Bft) 97 %
04.04.2017 16:40 15,9 C 15,9 C 16,1 C 62 % 1020,3 hPa 0,0 l/m 1,6 km/h (1 Bft) W 270 10 min 0,000 mm 244 W/m 8,6 C 15,9 C 12,9 km/h (3 Bft) 97 %
04.04.2017 16:50 14,8 C 14,8 C 15,9 C 63 % 1020,4 hPa 0,2 l/m 0,0 km/h (0 Bft) N 360 0 min 0,000 mm 148 W/m 7,8 C 14,8 C 1,6 km/h (1 Bft) 98 %
04.04.2017 17:00 13,8 C 13,8 C 14,8 C 70 % 1020,4 hPa 0,0 l/m 0,0 km/h (0 Bft) N 0 0 min 0,127 mm 111 W/m 8,4 C 13,8 C 0,0 km/h (0 Bft) 97 %
04.04.2017 17:10 13,3 C 13,3 C 13,7 C 71 % 1020,4 hPa 0,0 l/m 0,0 km/h (0 Bft) N 360 0 min 0,000 mm 116 W/m 8,2 C 13,3 C 1,6 km/h (1 Bft) 98 %
04.04.2017 17:20 13,2 C 13,2 C 13,3 C 71 % 1020,4 hPa 0,0 l/m 0,0 km/h (0 Bft) W-NW 292 0 min 0,000 mm 118 W/m 8,1 C 13,2 C 6,4 km/h (2 Bft) 97 %
04.04.2017 17:30 13,3 C 13,2 C 13,3 C 69 % 1020,3 hPa 0,0 l/m 0,0 km/h (0 Bft) W-NW 298 0 min 0,000 mm 144 W/m 7,7 C 13,3 C 0,0 km/h (0 Bft) 100 %
04.04.2017 17:40 13,4 C 13,3 C 13,4 C 69 % 1020,3 hPa 0,0 l/m 0,0 km/h (0 Bft) W-NW 298 0 min 0,000 mm 127 W/m 7,8 C 13,4 C 0,0 km/h (0 Bft) 100 %
04.04.2017 17:50 13,6 C 13,4 C 13,6 C 68 % 1020,5 hPa 0,0 l/m 0,0 km/h (0 Bft) W-NW 298 0 min 0,000 mm 93 W/m 7,8 C 13,6 C 0,0 km/h (0 Bft) 100 %
04.04.2017 18:00 13,5 C 13,5 C 13,6 C 66 % 1020,5 hPa 0,0 l/m 0,5 km/h (0 Bft) W-NW 298 0 min 0,026 mm 63 W/m 7,3 C 13,5 C 4,8 km/h (1 Bft) 100 %
04.04.2017 18:10 13,4 C 13,4 C 13,5 C 66 % 1020,5 hPa 0,0 l/m 0,0 km/h (0 Bft) NW 307 0 min 0,000 mm 76 W/m 7,2 C 13,4 C 1,6 km/h (1 Bft) 100 %
04.04.2017 18:20 13,3 C 13,3 C 13,4 C 69 % 1020,5 hPa 0,0 l/m 0,0 km/h (0 Bft) NW 309 0 min 0,000 mm 62 W/m 7,7 C 13,3 C 0,0 km/h (0 Bft) 100 %
04.04.2017 18:30 13,1 C 13,1 C 13,3 C 64 % 1020,5 hPa 0,0 l/m 0,0 km/h (0 Bft) NW 309 0 min 0,000 mm 44 W/m 6,4 C 13,1 C 1,6 km/h (1 Bft) 99 %
04.04.2017 18:40 12,7 C 12,7 C 13,1 C 66 % 1020,4 hPa 0,0 l/m 2,0 km/h (1 Bft) O-SO 111 0 min 0,000 mm 51 W/m 6,5 C 12,7 C 6,4 km/h (2 Bft) 100 %
04.04.2017 18:50 12,6 C 12,6 C 12,7 C 66 % 1020,4 hPa 0,0 l/m 0,5 km/h (0 Bft) O-SO 117 0 min 0,000 mm 47 W/m 6,4 C 12,6 C 4,8 km/h (1 Bft) 100 %
04.04.2017 19:00 12,5 C 12,5 C 12,6 C 67 % 1020,4 hPa 0,0 l/m 0,0 km/h (0 Bft) O-SO 117 0 min 0,025 mm 51 W/m 6,5 C 12,5 C 1,6 km/h (1 Bft) 100 %
04.04.2017 19:10 12,5 C 12,5 C 12,5 C 70 % 1020,6 hPa 0,0 l/m 0,0 km/h (0 Bft) O-SO 117 0 min 0,000 mm 35 W/m 7,2 C 12,5 C 0,0 km/h (0 Bft) 100 %
04.04.2017 19:20 12,4 C 12,4 C 12,6 C 71 % 1020,7 hPa 0,0 l/m 0,3 km/h (0 Bft) N 5 0 min 0,000 mm 16 W/m 7,3 C 12,4 C 6,4 km/h (2 Bft) 100 %
04.04.2017 19:30 12,2 C 12,2 C 12,4 C 69 % 1021,0 hPa 0,0 l/m 0,0 km/h (0 Bft) N 5 0 min 0,000 mm 7 W/m 6,7 C 12,2 C 0,0 km/h (0 Bft) 100 %
04.04.2017 19:40 11,9 C 11,9 C 12,2 C 70 % 1021,0 hPa 0,0 l/m 0,5 km/h (0 Bft) N-NO 13 0 min 0,000 mm 5 W/m 6,6 C 11,9 C 6,4 km/h (2 Bft) 100 %
04.04.2017 19:50 11,7 C 11,7 C 11,9 C 66 % 1021,4 hPa 0,0 l/m 2,0 km/h (1 Bft) NW 312 0 min 0,000 mm 0 W/m 5,6 C 11,7 C 19,3 km/h (3 Bft) 100 %
04.04.2017 20:00 11,2 C 11,2 C 11,7 C 71 % 1021,5 hPa 0,0 l/m 11,0 km/h (2 Bft) NW 319 0 min 0,026 mm 0 W/m 6,1 C 8,4 C 24,1 km/h (4 Bft) 100 %
04.04.2017 20:10 10,4 C 10,4 C 11,2 C 78 % 1021,8 hPa 0,2 l/m 12,6 km/h (3 Bft) NW 321 0 min 0,000 mm 0 W/m 6,7 C 6,7 C 32,2 km/h (5 Bft) 99 %
04.04.2017 20:20 9,8 C 9,8 C 10,4 C 80 % 1022,0 hPa 0,4 l/m 3,4 km/h (1 Bft) NW 318 0 min 0,000 mm 0 W/m 6,5 C 9,8 C 16,1 km/h (3 Bft) 99 %
04.04.2017 20:30 9,2 C 9,2 C 9,8 C 84 % 1021,9 hPa 0,0 l/m 0,8 km/h (0 Bft) O 86 0 min 0,000 mm 0 W/m 6,6 C 9,2 C 6,4 km/h (2 Bft) 100 %
04.04.2017 20:40 8,6 C 8,6 C 9,2 C 87 % 1021,7 hPa 0,4 l/m 2,7 km/h (1 Bft) O-SO 113 0 min 0,000 mm 0 W/m 6,6 C 8,6 C 9,7 km/h (2 Bft) 99 %
04.04.2017 20:50 8,4 C 8,3 C 8,6 C 85 % 1021,4 hPa 0,0 l/m 9,5 km/h (2 Bft) O-SO 102 0 min 0,000 mm 0 W/m 6,0 C 6,1 C 25,7 km/h (4 Bft) 100 %
04.04.2017 21:00 8,4 C 8,3 C 8,4 C 84 % 1021,5 hPa 0,0 l/m 2,0 km/h (1 Bft) O-SO 119 0 min 0,025 mm 0 W/m 5,9 C 8,4 C 11,3 km/h (2 Bft) 100 %
04.04.2017 21:10 8,5 C 8,4 C 8,5 C 83 % 1021,7 hPa 0,0 l/m 1,6 km/h (1 Bft) O 90 0 min 0,000 mm 0 W/m 5,8 C 8,5 C 9,7 km/h (2 Bft) 98 %
04.04.2017 21:20 8,5 C 8,4 C 8,5 C 83 % 1021,7 hPa 0,0 l/m 0,0 km/h (0 Bft) O-NO 67 0 min 0,000 mm 0 W/m 5,8 C 8,5 C 14,5 km/h (3 Bft) 97 %
04.04.2017 21:30 8,6 C 8,5 C 8,6 C 85 % 1022,0 hPa 0,0 l/m 0,0 km/h (0 Bft) O-SO 112 0 min 0,000 mm 0 W/m 6,2 C 8,6 C 8,0 km/h (2 Bft) 99 %
04.04.2017 21:40 8,5 C 8,5 C 8,6 C 85 % 1022,2 hPa 0,0 l/m 0,0 km/h (0 Bft) NO 45 0 min 0,000 mm 0 W/m 6,1 C 8,5 C 8,0 km/h (2 Bft) 97 %
04.04.2017 21:50 8,5 C 8,5 C 8,5 C 86 % 1022,4 hPa 0,0 l/m 0,0 km/h (0 Bft) NO 45 0 min 0,000 mm 0 W/m 6,3 C 8,5 C 6,4 km/h (2 Bft) 97 %
04.04.2017 22:00 8,4 C 8,4 C 8,5 C 86 % 1022,4 hPa 0,0 l/m 0,0 km/h (0 Bft) NO 45 0 min 0,000 mm 0 W/m 6,2 C 8,4 C 3,2 km/h (1 Bft) 98 %
04.04.2017 22:10 8,3 C 8,3 C 8,4 C 85 % 1022,4 hPa 0,0 l/m 0,0 km/h (0 Bft) O-NO 67 0 min 0,000 mm 0 W/m 5,9 C 8,3 C 8,0 km/h (2 Bft) 97 %
04.04.2017 22:20 8,3 C 8,3 C 8,3 C 85 % 1022,3 hPa 0,0 l/m 0,0 km/h (0 Bft) O 90 0 min 0,000 mm 0 W/m 5,9 C 8,3 C 6,4 km/h (2 Bft) 98 %
04.04.2017 22:30 8,2 C 8,2 C 8,3 C 84 % 1022,4 hPa 0,0 l/m 0,0 km/h (0 Bft) O 90 0 min 0,000 mm 0 W/m 5,7 C 8,2 C 4,8 km/h (1 Bft) 92 %
04.04.2017 22:40 8,3 C 8,2 C 8,3 C 83 % 1022,2 hPa 0,0 l/m 3,2 km/h (1 Bft) O 90 0 min 0,000 mm 0 W/m 5,6 C 8,3 C 11,3 km/h (2 Bft) 95 %
04.04.2017 22:50 8,3 C 8,3 C 8,3 C 84 % 1022,1 hPa 0,0 l/m 1,6 km/h (1 Bft) SO 135 0 min 0,000 mm 0 W/m 5,8 C 8,3 C 12,9 km/h (3 Bft) 97 %
04.04.2017 23:00 8,3 C 8,3 C 8,3 C 84 % 1022,2 hPa 0,0 l/m 1,6 km/h (1 Bft) O 90 0 min 0,000 mm 0 W/m 5,8 C 8,3 C 8,0 km/h (2 Bft) 98 %
04.04.2017 23:10 8,3 C 8,3 C 8,3 C 85 % 1022,2 hPa 0,0 l/m 0,0 km/h (0 Bft) O-SO 112 0 min 0,000 mm 0 W/m 5,9 C 8,3 C 8,0 km/h (2 Bft) 99 %
04.04.2017 23:20 8,2 C 8,2 C 8,3 C 84 % 1022,2 hPa 0,0 l/m 0,0 km/h (0 Bft) N 0 0 min 0,000 mm 0 W/m 5,7 C 8,2 C 0,0 km/h (0 Bft) 99 %
04.04.2017 23:30 8,1 C 8,1 C 8,2 C 84 % 1022,1 hPa 0,0 l/m 0,0 km/h (0 Bft) O-SO 112 0 min 0,000 mm 0 W/m 5,6 C 8,1 C 4,8 km/h (1 Bft) 99 %
04.04.2017 23:40 7,9 C 7,9 C 8,1 C 84 % 1022,1 hPa 0,0 l/m 0,0 km/h (0 Bft) N 0 0 min 0,000 mm 0 W/m 5,4 C 7,9 C 0,0 km/h (0 Bft) 99 %
04.04.2017 23:50 7,9 C 7,9 C 7,9 C 85 % 1022,1 hPa 0,0 l/m 0,0 km/h (0 Bft) O-NO 67 0 min 0,000 mm 0 W/m 5,5 C 7,9 C 4,8 km/h (1 Bft) 100 %
_ Min-Zeit 06:50 06:50 07:00 14:20 16:20 - 00:00 - - - - - 06:40 06:50 00:00 04:20
Minimum _ 4,7 C 4,7 C 4,7 C 55 % 1020,3 hPa - 0,0 km/h (0 Bft) - - - - - 3,3 C 4,7 C 0,0 km/h (0 Bft) 89 %
_ Max-Zeit 14:10 16:40 14:10 06:20 00:30 20:20 20:10 - - 08:40 14:00 14:00 13:30 14:10 20:10 00:10
Maximum _ 16,1 C 15,9 C 16,1 C 91 % 1022,4 hPa 0,4 l/m 12,6 km/h
NW (3 Bft)
- - 10 min 0,356 mm 916 W/m 8,7 C 16,1 C 32,2 km/h
NW (5 Bft)
100 %
Durchschnitt _ 10,1 C 10,0 C 10,3 C 78 % 1021,5 hPa #1,2 l/m 1,1 km/h (0 Bft) NW - #8:10 h #1,905 mm 339 W/m 6,3 C 10,0 C 5,2 km/h (1 Bft) 98 %
PRIVATE WETTERSTATION BILLIGHEIM-ALLFELD - www.neckar-odenwald-wetter.de - Holger Sonntag